Weather in Boguslavka

Russia / Primorsky Krai     44°29′07″N   131°34′35″E
temp.,
°C
wind,
m/s
gust,
m/s
humid.,
%
clouds,
%
prec.,
mm/h
press.,
hPa
HPBL,
m
8 may, sat
sat801:00+9w61180100 0.4 989726
04:00+9wnw71476100 0.8 991923
07:00+9wnw6137014 0.1 994758
10:00+14wsw3347100 0.1 994897
13:00+15s4846100 0.1 9941914
16:00+15sse6847100 0.1 991833
19:00+11sse5970100 0.0 992617
22:00+8sse3689100 1.1 991612
9 may, sun
sun901:00+7w4787100 3.1 990636
04:00+7ssw3690100 4.3 990920
07:00+6wsw3686100 0.3 992878
10:00+6wnw3687100 0.8 994762
13:00+6w1389100 0.8 996829
16:00+8nw368399 0.9 998656
19:00+8nnw3786100 0.4 1001616
22:00+8nw41089100 0.9 1004732
10 may, mon
mon1001:00+8nnw3989100 0.3 1006604
04:00+7nw3790100 0.4 1007332
07:00+7nw2789100 0.1 1009544
10:00+8nw478198 0.1 1011820
13:00+9wnw467794 0.1 1011965
16:00+8wnw3583100 0.5 1012870
19:00+8wnw3580100 0.2 1013667
22:00+7nw2691100 1.0 1015342
11 may, tue
tue1101:00+7wnw239199 0.6 101686
04:00+6wnw2290100 0.7 101751
07:00+7wnw128865 0.0 101883
10:00+12se006410 0.0 1019830
13:00+13s2252100 0.1 10181529
16:00+15sse224825 0.1 10171524
19:00+14se46592 0.0 1016682
22:00+8sse3984100 0.0 1018319
12 may, wed
wed1201:00+6s488987 0.0 1018354
04:00+5s4993100 0.0 1017391
07:00+7s41088100 0.0 1017553
10:00+10s51074100 0.0 1014707
13:00+13s7965100 0.0 10131026
16:00+9s61291100 2.0 1013655
19:00+9s5992100 0.3 1012517
22:00+8s259793 0.3 1014168